Location: Anumalkud?ru
(16.4847°N, 80.6636°E)
Time: 22:38:32
(UTC+00:00)

Lacrosse 4 Rocket - Pass Details

Date: 11 April 2026
Orbit: 506 x 566 km, 68.0° (Epoch: 9 May)

Event Time Altitude Azimuth Distance (km) Brightness Sun altitude
Rises 14:00:54 0° 319° (NW) 2,741 5.8 -17.0°
Reaches altitude 10° 14:03:29 10° 303° (WNW) 1,850 5.1 -17.6°
Maximum altitude 14:06:40 21° 253° (WSW) 1,276 3.9 -18.3°
Drops below altitude 10° 14:09:51 10° 203° (SSW) 1,854 4.1 -19.1°
Sets 14:12:28 0° 187° (S) 2,748 4.8 -19.7°
